EN

Hourly Weather Khlibodarivka

Today, 21 October, Wednesday

Time Temperature Precipitation Wind Pressure Humidity
00:00 +9°C° 0 mm 2 mps 769 mmHg 61%
01:00 +10°C° 0 mm 1 mps 769 mmHg 63%
02:00 +9°C° 0 mm 1 mps 769 mmHg 64%
03:00 +9°C° 0 mm 1 mps 769 mmHg 65%
04:00 +9°C° 0 mm 1 mps 769 mmHg 66%
05:00 +9°C° 0 mm 1 mps 769 mmHg 67%
06:00 +9°C° 0 mm 1 mps 769 mmHg 64%
07:00 +10°C° 0 mm 1 mps 769 mmHg 60%
08:00 +10°C° 0 mm 2 mps 769 mmHg 57%
09:00 +12°C° 0 mm 2 mps 769 mmHg 53%
10:00 +14°C° 0 mm 2 mps 769 mmHg 49%
11:00 +15°C° 0 mm 2 mps 769 mmHg 44%
12:00 +15°C° 0 mm 2 mps 769 mmHg 44%
13:00 +15°C° 0 mm 2 mps 768 mmHg 43%
14:00 +16°C° 0 mm 2 mps 767 mmHg 42%
15:00 +15°C° 0 mm 2 mps 767 mmHg 47%
16:00 +14°C° 0 mm 2 mps 767 mmHg 52%
17:00 +13°C° 0 mm 2 mps 766 mmHg 56%
18:00 +13°C° 0 mm 2 mps 766 mmHg 59%
19:00 +13°C° 0 mm 2 mps 766 mmHg 62%
20:00 +12°C° 0 mm 2 mps 766 mmHg 65%
21:00 +13°C° 0 mm 2 mps 766 mmHg 66%
22:00 +13°C° 0 mm 2 mps 765 mmHg 66%
23:00 +13°C° 0 mm 2 mps 765 mmHg 67%

Tomorrow, 22 October, Thursday

Time Temperature Precipitation Wind Pressure Humidity
00:00 +13°C° 0 mm 3 mps 765 mmHg 71%
01:00 +13°C° 0 mm 3 mps 765 mmHg 76%
02:00 +13°C° 0 mm 3 mps 764 mmHg 80%
03:00 +13°C° 0 mm 3 mps 764 mmHg 82%
04:00 +13°C° 0 mm 3 mps 764 mmHg 83%
05:00 +13°C° 0 mm 3 mps 764 mmHg 84%
06:00 +13°C° 0 mm 3 mps 764 mmHg 81%
07:00 +14°C° 0 mm 4 mps 764 mmHg 78%
08:00 +15°C° 0 mm 4 mps 764 mmHg 75%
09:00 +16°C° 0 mm 5 mps 764 mmHg 70%
10:00 +19°C° 0 mm 5 mps 764 mmHg 65%
11:00 +20°C° 0 mm 6 mps 764 mmHg 59%
12:00 +20°C° 0 mm 6 mps 764 mmHg 58%
13:00 +21°C° 0 mm 6 mps 763 mmHg 56%
14:00 +21°C° 0 mm 6 mps 763 mmHg 54%
15:00 +20°C° 0 mm 5 mps 763 mmHg 59%
16:00 +19°C° 0 mm 4 mps 763 mmHg 64%
17:00 +17°C° 0 mm 4 mps 763 mmHg 69%
18:00 +17°C° 0 mm 3 mps 763 mmHg 73%
19:00 +16°C° 0 mm 3 mps 763 mmHg 77%
20:00 +14°C° 0 mm 3 mps 763 mmHg 81%
21:00 +14°C° 0 mm 3 mps 763 mmHg 83%
22:00 +14°C° 0 mm 3 mps 763 mmHg 86%
23:00 +14°C° 0 mm 3 mps 763 mmHg 88%

Day after tomorrow, 23 October, Friday

Time Temperature Precipitation Wind Pressure Humidity
00:00 +14°C° 0 mm 3 mps 763 mmHg 88%
01:00 +14°C° 0 mm 3 mps 763 mmHg 89%
02:00 +14°C° 0 mm 3 mps 763 mmHg 89%
03:00 +14°C° 0 mm 3 mps 763 mmHg 90%
04:00 +14°C° 0 mm 3 mps 763 mmHg 90%
05:00 +14°C° 0 mm 3 mps 763 mmHg 90%
06:00 +14°C° 0 mm 3 mps 763 mmHg 87%
07:00 +15°C° 0 mm 4 mps 762 mmHg 84%
08:00 +17°C° 0 mm 4 mps 762 mmHg 81%
09:00 +18°C° 0 mm 4 mps 762 mmHg 75%
10:00 +20°C° 0 mm 5 mps 762 mmHg 68%
11:00 +21°C° 0 mm 5 mps 762 mmHg 62%
12:00 +21°C° 0 mm 6 mps 762 mmHg 60%
13:00 +21°C° 0 mm 6 mps 761 mmHg 58%
14:00 +21°C° 0 mm 6 mps 761 mmHg 56%
15:00 +20°C° 0 mm 6 mps 760 mmHg 63%
16:00 +19°C° 0 mm 5 mps 760 mmHg 70%
17:00 +18°C° 0 mm 4 mps 760 mmHg 77%
18:00 +17°C° 0 mm 4 mps 760 mmHg 81%
19:00 +17°C° 0 mm 4 mps 760 mmHg 86%
20:00 +15°C° 0 mm 4 mps 760 mmHg 90%
21:00 +15°C° 0 mm 4 mps 760 mmHg 91%
22:00 +15°C° 0 mm 4 mps 759 mmHg 91%
23:00 +15°C° 0 mm 4 mps 759 mmHg 92%

24 October, Saturday

Time Temperature Precipitation Wind Pressure Humidity
00:00 +15°C° 0 mm 4 mps 759 mmHg 92%
01:00 +15°C° 0 mm 4 mps 759 mmHg 92%
02:00 +15°C° 0 mm 4 mps 759 mmHg 92%
03:00 +15°C° 0 mm 4 mps 758 mmHg 93%
04:00 +15°C° 0 mm 4 mps 758 mmHg 93%
05:00 +15°C° 0 mm 4 mps 758 mmHg 93%
06:00 +15°C° 0 mm 4 mps 758 mmHg 89%
07:00 +17°C° 0 mm 4 mps 758 mmHg 86%
08:00 +17°C° 0 mm 5 mps 758 mmHg 82%
09:00 +19°C° 0 mm 5 mps 758 mmHg 77%
10:00 +19°C° 0 mm 5 mps 758 mmHg 73%
11:00 +20°C° 0 mm 5 mps 757 mmHg 68%
12:00 +21°C° 0 mm 5 mps 757 mmHg 65%
13:00 +21°C° 0 mm 5 mps 757 mmHg 63%
14:00 +22°C° 0 mm 5 mps 757 mmHg 60%
15:00 +21°C° 0 mm 5 mps 757 mmHg 66%
16:00 +20°C° 0 mm 4 mps 756 mmHg 72%
17:00 +19°C° 0 mm 4 mps 756 mmHg 77%
18:00 +18°C° 0 mm 4 mps 756 mmHg 78%
19:00 +18°C° 0 mm 3 mps 756 mmHg 78%
20:00 +17°C° 0 mm 3 mps 756 mmHg 79%
21:00 +17°C° 0 mm 3 mps 756 mmHg 74%
22:00 +17°C° 0 mm 3 mps 757 mmHg 70%
23:00 +17°C° 0 mm 2 mps 757 mmHg 66%

25 October, Sunday

Time Temperature Precipitation Wind Pressure Humidity
00:00 +17°C° 0 mm 2 mps 756 mmHg 64%
01:00 +17°C° 0 mm 2 mps 756 mmHg 62%
02:00 +16°C° 0 mm 2 mps 756 mmHg 60%
03:00 +16°C° 0 mm 3 mps 756 mmHg 62%
04:00 +16°C° 0 mm 3 mps 757 mmHg 65%
05:00 +15°C° 0 mm 4 mps 757 mmHg 67%
06:00 +15°C° 0 mm 4 mps 757 mmHg 67%
07:00 +15°C° 0 mm 5 mps 758 mmHg 68%
08:00 +15°C° 0 mm 5 mps 758 mmHg 68%
09:00 +15°C° 0 mm 5 mps 758 mmHg 61%
10:00 +15°C° 0 mm 5 mps 758 mmHg 55%
11:00 +16°C° 0 mm 5 mps 759 mmHg 48%
12:00 +16°C° 0 mm 5 mps 759 mmHg 44%
13:00 +17°C° 0 mm 5 mps 758 mmHg 39%
14:00 +17°C° 0 mm 5 mps 758 mmHg 35%
15:00 +16°C° 0 mm 5 mps 758 mmHg 38%
16:00 +15°C° 0 mm 4 mps 759 mmHg 41%
17:00 +13°C° 0 mm 4 mps 759 mmHg 45%
18:00 +13°C° 0 mm 4 mps 759 mmHg 48%
19:00 +12°C° 0 mm 4 mps 759 mmHg 51%
20:00 +11°C° 0 mm 4 mps 760 mmHg 54%
21:00 +11°C° 0 mm 4 mps 760 mmHg 58%
22:00 +10°C° 0 mm 4 mps 760 mmHg 62%
23:00 +10°C° 0 mm 4 mps 760 mmHg 66%

26 October, Monday

Time Temperature Precipitation Wind Pressure Humidity
00:00 +8°C° 0 mm 4 mps 760 mmHg 68%
01:00 +8°C° 0 mm 4 mps 760 mmHg 70%
02:00 +7°C° 0 mm 4 mps 760 mmHg 72%
03:00 +7°C° 0 mm 4 mps 760 mmHg 74%
04:00 +7°C° 0 mm 3 mps 760 mmHg 77%
05:00 +7°C° 0 mm 3 mps 760 mmHg 79%
06:00 +7°C° 0 mm 3 mps 760 mmHg 77%
07:00 +8°C° 0 mm 3 mps 761 mmHg 75%
08:00 +8°C° 0 mm 3 mps 761 mmHg 73%
09:00 +10°C° 0 mm 3 mps 761 mmHg 68%
10:00 +11°C° 0 mm 3 mps 761 mmHg 63%
11:00 +13°C° 0 mm 3 mps 761 mmHg 59%
12:00 +14°C° 0 mm 3 mps 761 mmHg 57%
13:00 +14°C° 0 mm 4 mps 761 mmHg 55%
14:00 +15°C° 0 mm 4 mps 761 mmHg 53%
15:00 +14°C° 0 mm 3 mps 761 mmHg 55%
16:00 +13°C° 0 mm 3 mps 761 mmHg 57%
17:00 +13°C° 0 mm 3 mps 761 mmHg 59%
18:00 +12°C° 0 mm 3 mps 761 mmHg 61%
19:00 +12°C° 0 mm 4 mps 762 mmHg 64%
20:00 +11°C° 0 mm 4 mps 762 mmHg 67%
21:00 +10°C° 0 mm 4 mps 762 mmHg 70%
22:00 +10°C° 0 mm 4 mps 762 mmHg 73%
23:00 +9°C° 0 mm 3 mps 763 mmHg 77%

27 October, Tuesday

Time Temperature Precipitation Wind Pressure Humidity
00:00 +9°C° 0 mm 3 mps 763 mmHg 78%
01:00 +8°C° 0 mm 3 mps 763 mmHg 79%
02:00 +8°C° 0 mm 3 mps 763 mmHg 80%
03:00 +8°C° 0 mm 3 mps 763 mmHg 80%
04:00 +6°C° 0 mm 4 mps 763 mmHg 80%
05:00 +6°C° 0 mm 4 mps 764 mmHg 80%
06:00 +7°C° 0 mm 4 mps 764 mmHg 76%
07:00 +7°C° 0 mm 4 mps 764 mmHg 72%
08:00 +8°C° 0 mm 5 mps 765 mmHg 68%
09:00 +9°C° 0 mm 5 mps 765 mmHg 62%
10:00 +10°C° 0 mm 5 mps 765 mmHg 55%
11:00 +13°C° 0 mm 5 mps 765 mmHg 49%
12:00 +13°C° 0 mm 5 mps 765 mmHg 47%
13:00 +14°C° 0 mm 5 mps 765 mmHg 46%
14:00 +14°C° 0 mm 5 mps 765 mmHg 44%
15:00 +13°C° 0 mm 5 mps 765 mmHg 48%
16:00 +12°C° 0 mm 5 mps 765 mmHg 52%
17:00 +10°C° 0 mm 5 mps 765 mmHg 56%
18:00 +10°C° 0 mm 5 mps 765 mmHg 58%
19:00 +9°C° 0 mm 5 mps 765 mmHg 61%
20:00 +9°C° 0 mm 5 mps 765 mmHg 63%
21:00 +8°C° 0 mm 5 mps 766 mmHg 65%
22:00 +8°C° 0 mm 4 mps 766 mmHg 67%
23:00 +7°C° 0 mm 4 mps 766 mmHg 69%
Show more

We Need Your Consent

Meteoprog and our Service Providers may store and access personal data such as cookies, device identifiers or other similar technologies on your device and process such data to personalise content and ads, as well as provide social media features and to analyse the traffic.

  • Store and/or access information on your device

    Cookies, device identifiers or other information can be stored or accessed on your device for the purposes indicated above.

  • Personalised ads and content, ad and content measurement, audience insights, and products development

    Ads and content can be personalised based on a profile. More data can be added to better personalise ads and content. Ad and content performance can be measured. Insights about the audience who saw the ads and content can be derived. Such data can be used to develop or improve user’s experience, systems and software.

By clicking ‘I Agree’ you will allow the use of indicated cookies, device identifiers, web beacons or other similar technologies. Your settings can be changed in the browser on your device.

For certain purposes, legitimate interests may be relied on, rather than consent. You can read more about this in our Privacy and Cookie Policy.